GW6345 Weather Reports


time (UTC)temp
F
wind
direction
speed
knots
gust
knots
rain 1hr
in
rain 24hr
in
rain mn
in
humidity
%
barometer
mb
20260504174520 76 96 1.7 5.2 0.00 0.00 0.00 44 1017.4
20260504173020 75 123 1.7 6.1 0.00 0.00 0.00 44 1017.5
20260504171536 76 121 2.6 6.1 0.00 0.00 0.00 43 1017.2
20260504081530 54 153 0.0 0.0 0.00 0.00 0.00 89 1017.3
20260504050008 58 136 0.0 0.0 0.00 0.00 0.00 85 1018.7
20260504044523 58 136 0.0 0.9 0.00 0.00 0.00 85 1018.7
20260504043017 58 39 0.0 0.0 0.00 0.00 0.00 84 1018.8
20260504041520 58 39 0.0 0.9 0.00 0.00 0.00 84 1018.9
20260504040007 59 39 0.0 0.9 0.00 0.00 0.00 85 1018.9
20260504034512 59 39 0.0 0.9 0.00 0.00 0.00 84 1018.8
20260504033016 59 313 0.0 0.9 0.00 0.00 0.00 84 1018.8
20260504031518 59 7 0.0 0.9 0.00 0.00 0.00 84 1018.9
20260504030036 59 7 0.0 0.9 0.00 0.00 0.00 83 1018.9
20260504024509 60 285 0.0 0.9 0.00 0.00 0.00 82 1018.7
20260504023012 60 140 0.0 0.9 0.00 0.00 0.00 83 1018.5
20260504021528 60 126 0.0 0.9 0.00 0.00 0.00 82 1018.5
20260504020020 60 126 0.0 0.9 0.00 0.00 0.00 81 1018.2
20260504014522 61 126 0.0 0.9 0.00 0.00 0.00 80 1018.1
20260504013010 62 126 0.0 0.9 0.00 0.00 0.00 77 1018.0
20260504011518 63 126 0.0 0.9 0.00 0.00 0.00 75 1017.8
20260504010018 64 126 0.0 0.9 0.00 0.00 0.00 73 1017.8
20260504004528 66 126 0.0 0.9 0.00 0.00 0.00 68 1017.8
20260504003024 68 126 0.0 0.9 0.00 0.00 0.00 64 1017.7
20260504001526 73 139 0.0 1.7 0.00 0.00 0.00 57 1017.7
20260504000014 75 203 0.0 1.7 0.00 0.00 0.00 50 1017.7
20260503234534 75 138 0.9 2.6 0.00 0.00 0.00 47 1017.8
20260503233023 76 131 0.9 3.5 0.00 0.00 0.00 48 1017.9
20260503231527 77 123 0.9 2.6 0.00 0.00 0.00 46 1017.9
20260503230013 77 134 0.9 3.5 0.00 0.00 0.00 46 1017.9
20260503224526 77 167 1.7 3.5 0.00 0.00 0.00 45 1017.9
20260503223021 78 151 0.9 3.5 0.00 0.00 0.00 42 1018.0
20260503221526 78 184 0.9 2.6 0.00 0.00 0.00 41 1018.0
20260503220042 78 213 0.9 4.3 0.00 0.00 0.00 40 1018.2
20260503214517 78 189 0.9 3.5 0.00 0.00 0.00 42 1018.5
20260503213019 78 197 1.7 4.3 0.00 0.00 0.00 41 1018.7
20260503211524 77 305 2.6 6.1 0.00 0.00 0.00 43 1019.0
20260503210024 77 162 0.9 3.5 0.00 0.00 0.00 40 1019.2
20260503204530 77 133 0.9 3.5 0.00 0.00 0.00 40 1019.3
20260503203030 76 210 0.9 6.1 0.00 0.00 0.00 41 1019.4
20260503201503 77 223 1.7 5.2 0.00 0.00 0.00 40 1019.5
20260503200004 77 174 3.5 7.0 0.00 0.00 0.00 38 1019.8
20260503194508 77 243 2.6 4.3 0.00 0.00 0.00 40 1020.0
20260503193014 76 207 2.6 4.3 0.00 0.00 0.00 39 1020.1
20260503191527 76 279 3.5 6.1 0.00 0.00 0.00 37 1020.3
20260503190003 76 276 0.9 4.3 0.00 0.00 0.00 36 1020.5
20260503184507 77 304 1.7 4.3 0.00 0.00 0.00 38 1020.7
20260503183039 75 276 0.9 5.2 0.00 0.00 0.00 38 1021.0
20260503181518 76 52 0.9 6.1 0.00 0.00 0.00 38 1021.3
20260503180026 76 44 1.7 3.5 0.00 0.00 0.00 39 1021.5